Cedar City, UT

3:30 PM MDT on July 21, 2017 (GMT -0600)
Cedar City Regional

Weather History for KCDC - May, 2013

Change the Weather History Date:

Wednesday, May 22, 2013

  Actual Average Record
Temperature  
Mean Temperature 64 °F 58 °F  
Max Temperature 80 °F 75 °F 91 °F (1967)
Min Temperature 47 °F 41 °F 27 °F (2002)
Degree Days  
Heating Degree Days 1 8  
Month to date heating degree days 231 234  
Since 1 July heating degree days 6064 6120  
Cooling Degree Days 0 0  
Month to date cooling degree days 2 0  
Year to date cooling degree days 2 0  
Growing Degree Days 14 (Base 50)    
Moisture  
Dew Point 17 °F    
Average Humidity 19    
Maximum Humidity 32    
Minimum Humidity 6    
Precipitation  
Precipitation 0.00 in 0.03 in 0.63 in (1954)
Month to date precipitation 0.33 0.54  
Year to date precipitation 4.05 4.81  
Sea Level Pressure  
Sea Level Pressure 29.58 in    
Wind  
Wind Speed 17 mph (SSW)    
Max Wind Speed 37 mph    
Max Gust Speed 48 mph    
Visibility 10 miles    
Events      
T = Trace of Precipitation, MM = Missing Value Source: NWS Daily Summary

Daily Weather History Graph

Daily Weather History Graph

Search for Another Location

Airport or City:

Trip Planner

Search our weather history database for the weather conditions in past years. The results will help you decide how hot, cold, wet, or windy it might be!

Date:

Astronomy

May. 22, 2013 Rise Set
Actual Time 6:17 AM MDT 8:41 PM MDT
Civil Twilight 5:47 AM MDT 9:11 PM MDT
Nautical Twilight 5:10 AM MDT 9:48 PM MDT
Astronomical Twilight 4:29 AM MDT 10:29 PM MDT
Moon 6:10 PM MDT (5/22) 4:20 AM MDT (5/22)
Length of Visible Light 15h 24m
Length of Day
14h 24m
Waxing Gibbous, 92% of the Moon is Illuminated
May 22
Waxing Gibbous
May 24
Full
May 31
Last Quarter
Jun 8
New
Jun 16
First Quarter

Hourly Weather History & Observations

Time (MDT) Temp. Dew Point Humidity Pressure Visibility Wind Dir Wind Speed Gust Speed Precip Events Conditions
12:53 AM 52.0 °F 19.0 °F 27% 29.68 in 10.0 mi SSW 9.2 mph - N/A   Clear
1:53 AM 52.0 °F 19.9 °F 28% 29.66 in 10.0 mi WSW 6.9 mph - N/A   Clear
2:53 AM 53.1 °F 19.9 °F 27% 29.63 in 10.0 mi West 4.6 mph - N/A   Clear
3:53 AM 52.0 °F 21.0 °F 30% 29.63 in 10.0 mi West 4.6 mph - N/A   Clear
4:53 AM 54.0 °F 19.0 °F 25% 29.62 in 10.0 mi SSW 9.2 mph - N/A   Clear
5:53 AM 50.0 °F 19.0 °F 29% 29.62 in 10.0 mi SW 8.1 mph - N/A   Clear
6:53 AM 48.9 °F 23.0 °F 36% 29.62 in 10.0 mi WNW 3.5 mph - N/A   Clear
7:27 AM 60.8 °F 23.0 °F 23% 29.79 in 10.0 mi South 11.5 mph - N/A   Clear
7:53 AM 64.0 °F 25.0 °F 23% 29.58 in 10.0 mi SSW 13.8 mph 21.9 mph N/A   Clear
8:53 AM 68.0 °F 26.1 °F 21% 29.58 in 10.0 mi SSW 15.0 mph 25.3 mph N/A   Clear
9:53 AM 69.1 °F 23.0 °F 18% 29.60 in 10.0 mi South 24.2 mph 36.8 mph N/A   Clear
10:53 AM 71.1 °F 21.9 °F 16% 29.59 in 10.0 mi South 24.2 mph 38.0 mph N/A   Clear
11:53 AM 73.9 °F 21.0 °F 14% 29.59 in 10.0 mi SSW 23.0 mph 34.5 mph N/A   Clear
12:53 PM 75.9 °F 17.1 °F 11% 29.58 in 10.0 mi SSW 26.5 mph 34.5 mph N/A   Clear
1:53 PM 77.0 °F 14.0 °F 9% 29.57 in 10.0 mi SSW 33.4 mph 43.7 mph N/A   Clear
2:53 PM 78.1 °F 14.0 °F 9% 29.55 in 10.0 mi South 29.9 mph 41.4 mph N/A   Clear
3:53 PM 79.0 °F 6.1 °F 6% 29.53 in 10.0 mi SSW 29.9 mph 41.4 mph N/A   Clear
4:53 PM 79.0 °F 8.1 °F 7% 29.50 in 10.0 mi SSW 28.8 mph 38.0 mph N/A   Clear
5:53 PM 78.1 °F 9.0 °F 7% 29.52 in 10.0 mi SSW 23.0 mph 36.8 mph N/A   Clear
6:53 PM 75.9 °F 10.0 °F 8% 29.52 in 10.0 mi South 17.3 mph 32.2 mph N/A   Clear
7:53 PM 72.0 °F 12.0 °F 10% 29.49 in 10.0 mi SSW 24.2 mph 36.8 mph N/A   Clear
8:53 PM 70.0 °F 10.9 °F 10% 29.50 in 10.0 mi SSW 19.6 mph 32.2 mph N/A   Clear
9:53 PM 69.1 °F 12.0 °F 11% 29.52 in 10.0 mi South 20.7 mph 32.2 mph N/A   Clear
10:53 PM 68.0 °F 10.9 °F 11% 29.52 in 10.0 mi South 17.3 mph 28.8 mph N/A   Clear
11:53 PM 66.9 °F 16.0 °F 14% 29.50 in 10.0 mi South 18.4 mph - N/A   Clear